• en France
  • Liste des pays
  • À 7 jours
  • Température de l'eau
  • Carte satellitaire
  • Carte météo
  • Widgets météo
  • user-avatar
    Se connecter

    Météo par heure à Zacisze

    Ce jour, 17 Août, Vendredi

    Heure Température Précipitation Vent Pression Humidité
    00:00 +20°C° 0 mm 3 m/s 754 mmHg 61%
    01:00 +20°C° 0 mm 3 m/s 754 mmHg 62%
    02:00 +19°C° 0 mm 3 m/s 754 mmHg 65%
    03:00 +19°C° 0 mm 3 m/s 754 mmHg 67%
    04:00 +18°C° 0 mm 3 m/s 754 mmHg 70%
    05:00 +19°C° 0 mm 3 m/s 754 mmHg 69%
    06:00 +20°C° 0 mm 3 m/s 754 mmHg 69%
    07:00 +22°C° 0 mm 3 m/s 754 mmHg 69%
    08:00 +24°C° 0 mm 3 m/s 754 mmHg 63%
    09:00 +26°C° 0 mm 4 m/s 754 mmHg 57%
    10:00 +27°C° 0 mm 4 m/s 754 mmHg 51%
    11:00 +28°C° 0 mm 3 m/s 753 mmHg 49%
    12:00 +28°C° 0 mm 3 m/s 753 mmHg 47%
    13:00 +29°C° 0 mm 3 m/s 753 mmHg 46%
    14:00 +29°C° 0 mm 2 m/s 753 mmHg 45%
    15:00 +29°C° 0 mm 2 m/s 752 mmHg 45%
    16:00 +29°C° 0 mm 2 m/s 752 mmHg 44%
    17:00 +28°C° 0 mm 2 m/s 752 mmHg 48%
    18:00 +27°C° 0 mm 2 m/s 752 mmHg 53%
    19:00 +25°C° 0 mm 2 m/s 752 mmHg 57%
    20:00 +25°C° 0 mm 2 m/s 752 mmHg 60%
    21:00 +24°C° 0 mm 2 m/s 753 mmHg 63%
    22:00 +23°C° 0 mm 2 m/s 753 mmHg 65%
    23:00 +21°C° 0 mm 2 m/s 753 mmHg 67%

    Demain, 18 Août, Samedi

    Heure Température Précipitation Vent Pression Humidité
    00:00 +21°C° 0 mm 2 m/s 753 mmHg 69%
    01:00 +21°C° 0 mm 2 m/s 753 mmHg 71%
    02:00 +20°C° 0 mm 2 m/s 753 mmHg 73%
    03:00 +21°C° 0 mm 1 m/s 754 mmHg 74%
    04:00 +20°C° 0 mm 1 m/s 754 mmHg 76%
    05:00 +21°C° 0 mm 1 m/s 754 mmHg 73%
    06:00 +22°C° 0 mm 1 m/s 754 mmHg 70%
    07:00 +23°C° 0 mm 1 m/s 754 mmHg 67%
    08:00 +25°C° 0 mm 1 m/s 755 mmHg 63%
    09:00 +26°C° 0 mm 1 m/s 755 mmHg 59%
    10:00 +27°C° 0 mm 1 m/s 755 mmHg 55%
    11:00 +28°C° 0,2 mm 2 m/s 755 mmHg 51%
    12:00 +29°C° 0,2 mm 2 m/s 755 mmHg 48%
    13:00 +30°C° 0,2 mm 2 m/s 755 mmHg 44%
    14:00 +30°C° 0 mm 3 m/s 755 mmHg 45%
    15:00 +30°C° 0 mm 3 m/s 755 mmHg 45%
    16:00 +29°C° 0 mm 3 m/s 755 mmHg 46%
    17:00 +28°C° 0 mm 3 m/s 755 mmHg 51%
    18:00 +27°C° 0 mm 2 m/s 755 mmHg 55%
    19:00 +25°C° 0 mm 2 m/s 755 mmHg 60%
    20:00 +24°C° 0 mm 2 m/s 756 mmHg 62%
    21:00 +24°C° 0 mm 3 m/s 756 mmHg 64%
    22:00 +22°C° 0 mm 3 m/s 756 mmHg 66%
    23:00 +21°C° 0 mm 3 m/s 756 mmHg 70%

    Après-demain, 19 Août, Dimanche

    Heure Température Précipitation Vent Pression Humidité
    00:00 +20°C° 0 mm 3 m/s 756 mmHg 75%
    01:00 +19°C° 0 mm 3 m/s 756 mmHg 79%
    02:00 +19°C° 0 mm 2 m/s 756 mmHg 83%
    03:00 +18°C° 0 mm 2 m/s 756 mmHg 86%
    04:00 +18°C° 0 mm 2 m/s 756 mmHg 90%
    05:00 +20°C° 0 mm 1 m/s 756 mmHg 85%
    06:00 +21°C° 0 mm 1 m/s 757 mmHg 81%
    07:00 +22°C° 0 mm 1 m/s 757 mmHg 76%
    08:00 +24°C° 0 mm 1 m/s 757 mmHg 66%
    09:00 +25°C° 0 mm 1 m/s 757 mmHg 56%
    10:00 +27°C° 0 mm 2 m/s 757 mmHg 46%
    11:00 +28°C° 0 mm 2 m/s 757 mmHg 42%
    12:00 +28°C° 0 mm 2 m/s 756 mmHg 39%
    13:00 +29°C° 0 mm 2 m/s 756 mmHg 36%
    14:00 +29°C° 0 mm 2 m/s 756 mmHg 35%
    15:00 +29°C° 0 mm 2 m/s 755 mmHg 35%
    16:00 +29°C° 0 mm 2 m/s 755 mmHg 34%
    17:00 +28°C° 0 mm 1 m/s 755 mmHg 38%
    18:00 +26°C° 0 mm 1 m/s 755 mmHg 42%
    19:00 +25°C° 0 mm 1 m/s 755 mmHg 46%
    20:00 +24°C° 0 mm 1 m/s 755 mmHg 48%
    21:00 +23°C° 0 mm 1 m/s 755 mmHg 49%
    22:00 +23°C° 0 mm 1 m/s 755 mmHg 50%
    23:00 +22°C° 0 mm 1 m/s 755 mmHg 52%

    20 Août, Lundi

    Heure Température Précipitation Vent Pression Humidité
    00:00 +22°C° 0 mm 1 m/s 755 mmHg 54%
    01:00 +21°C° 0 mm 1 m/s 755 mmHg 56%
    02:00 +21°C° 0 mm 1 m/s 755 mmHg 58%
    03:00 +21°C° 0 mm 1 m/s 755 mmHg 60%
    04:00 +20°C° 0 mm 1 m/s 754 mmHg 62%
    05:00 +21°C° 0 mm 1 m/s 755 mmHg 62%
    06:00 +23°C° 0 mm 1 m/s 755 mmHg 61%
    07:00 +24°C° 0 mm 2 m/s 755 mmHg 60%
    08:00 +25°C° 0 mm 2 m/s 755 mmHg 56%
    09:00 +27°C° 0 mm 2 m/s 754 mmHg 51%
    10:00 +29°C° 0 mm 2 m/s 754 mmHg 46%
    11:00 +29°C° 0 mm 2 m/s 754 mmHg 44%
    12:00 +30°C° 0 mm 2 m/s 754 mmHg 41%
    13:00 +31°C° 0 mm 2 m/s 753 mmHg 39%
    14:00 +31°C° 0 mm 2 m/s 753 mmHg 38%
    15:00 +31°C° 0 mm 2 m/s 753 mmHg 37%
    16:00 +31°C° 0 mm 2 m/s 753 mmHg 36%
    17:00 +30°C° 0 mm 1 m/s 753 mmHg 40%
    18:00 +28°C° 0 mm 1 m/s 752 mmHg 44%
    19:00 +27°C° 0 mm 1 m/s 752 mmHg 48%
    20:00 +26°C° 0 mm 1 m/s 752 mmHg 49%
    21:00 +25°C° 0 mm 1 m/s 753 mmHg 50%
    22:00 +25°C° 0 mm 1 m/s 753 mmHg 51%
    23:00 +24°C° 0 mm 1 m/s 753 mmHg 53%

    21 Août, Mardi

    Heure Température Précipitation Vent Pression Humidité
    00:00 +24°C° 0 mm 2 m/s 752 mmHg 55%
    01:00 +23°C° 0 mm 2 m/s 752 mmHg 57%
    02:00 +23°C° 0 mm 2 m/s 752 mmHg 59%
    03:00 +23°C° 0 mm 2 m/s 752 mmHg 61%
    04:00 +21°C° 0 mm 2 m/s 752 mmHg 64%
    05:00 +23°C° 0 mm 2 m/s 753 mmHg 63%
    06:00 +22°C° 0 mm 3 m/s 753 mmHg 63%
    07:00 +24°C° 0 mm 3 m/s 753 mmHg 63%
    08:00 +25°C° 0 mm 4 m/s 753 mmHg 60%
    09:00 +27°C° 0 mm 4 m/s 754 mmHg 56%
    10:00 +28°C° 0 mm 5 m/s 754 mmHg 53%
    11:00 +28°C° 0 mm 5 m/s 754 mmHg 51%
    12:00 +29°C° 0 mm 5 m/s 753 mmHg 49%
    13:00 +29°C° 0 mm 5 m/s 753 mmHg 48%
    14:00 +29°C° 0 mm 5 m/s 753 mmHg 48%
    15:00 +29°C° 0 mm 5 m/s 753 mmHg 48%
    16:00 +28°C° 0 mm 5 m/s 753 mmHg 47%
    17:00 +27°C° 0 mm 4 m/s 754 mmHg 51%
    18:00 +26°C° 0 mm 3 m/s 754 mmHg 54%
    19:00 +24°C° 0 mm 2 m/s 754 mmHg 58%
    20:00 +23°C° 0 mm 2 m/s 754 mmHg 59%
    21:00 +21°C° 0 mm 2 m/s 754 mmHg 60%
    22:00 +20°C° 0 mm 2 m/s 755 mmHg 61%
    23:00 +19°C° 0 mm 2 m/s 755 mmHg 62%

    22 Août, Mercredi

    Heure Température Précipitation Vent Pression Humidité
    00:00 +20°C° 0 mm 1 m/s 755 mmHg 62%
    01:00 +19°C° 0 mm 1 m/s 755 mmHg 62%
    02:00 +19°C° 0 mm 1 m/s 755 mmHg 63%
    03:00 +19°C° 0 mm 1 m/s 755 mmHg 63%
    04:00 +19°C° 0 mm 1 m/s 755 mmHg 63%
    05:00 +20°C° 0 mm 1 m/s 755 mmHg 62%
    06:00 +20°C° 0 mm 2 m/s 755 mmHg 60%
    07:00 +21°C° 0 mm 2 m/s 755 mmHg 58%
    08:00 +24°C° 0 mm 2 m/s 755 mmHg 54%
    09:00 +25°C° 0 mm 2 m/s 755 mmHg 49%
    10:00 +27°C° 0 mm 3 m/s 755 mmHg 45%
    11:00 +28°C° 0 mm 3 m/s 754 mmHg 43%
    12:00 +29°C° 0 mm 3 m/s 754 mmHg 41%
    13:00 +30°C° 0 mm 3 m/s 754 mmHg 39%
    14:00 +30°C° 0 mm 3 m/s 754 mmHg 39%
    15:00 +30°C° 0 mm 3 m/s 753 mmHg 39%
    16:00 +30°C° 0 mm 2 m/s 753 mmHg 39%
    17:00 +28°C° 0 mm 2 m/s 753 mmHg 44%
    18:00 +27°C° 0 mm 2 m/s 753 mmHg 49%
    19:00 +25°C° 0 mm 2 m/s 753 mmHg 55%
    20:00 +24°C° 0 mm 2 m/s 754 mmHg 59%
    21:00 +23°C° 0 mm 2 m/s 754 mmHg 63%
    22:00 +23°C° 0 mm 2 m/s 754 mmHg 67%
    23:00 +21°C° 0 mm 2 m/s 754 mmHg 70%
    Voir plus